[[{"header":{"parameterUnit":"m.s-1","parameterCategory":1,"la1":30.2991,"la2":30.254,"lo1":-89.0895,"lo2":-89.0444,"dy":0.0017,"dx":0.0017,"nx":28,"ny":28,"refTime":"2023-10-14T03:00:00:Z","depth":0,"parameterNumber":2,"parameterNumberName":"U-component_of_WINDS"},"data":[0,0,0,0,0,0,0,0,0,0,0,0,0,0,0,0,0,0,0,0,0,0,0,0,0,0,0,0,0,0,0,0,0,0,0,0,0,0,0,0,0,0,0,0,0,0,0,0,0,0,0,0,0,0,0,0,0,0,3.3008,3.3008,0,3.3029,3.303,3.303,3.2962,3.296,3.2958,3.2956,3.2978,3.298,3.2983,0,0,0,0,0,0,0,0,0,0,0,0,0,3.2911,3.2913,3.3008,3.3008,3.3008,3.3029,3.303,3.303,3.2963,3.296,3.2958,3.2956,3.2977,3.298,3.2983,0,0,0,0,0,0,0,0,0,0,0,0,0,3.2945,3.2914,3.3008,3.2978,3.2975,3.3029,3.303,3.303,3.2963,3.296,3.2957,3.2954,3.2976,3.298,3.2983,3.3068,0,0,3.2995,3.2996,0,0,0,0,0,0,0,0,3.2943,3.2948,3.2982,3.298,3.2977,3.299,3.3003,3.3043,3.2964,3.2968,3.2956,3.2953,3.2984,3.2987,3.2998,3.3069,3.307,3.2995,3.2997,3.2999,3.3,0,0,0,0,0,0,0,3.2941,3.2947,3.3016,3.2982,3.2979,3.2964,3.2965,3.301,3.2993,3.2967,3.2962,3.2966,3.2983,3.2995,3.2998,3.307,3.2995,3.2998,3.3001,3.3002,3.3215,3.3219,0,0,0,0,0,0,3.2942,3.2946,3.3016,3.3017,3.2952,3.2968,3.2969,3.2989,3.2992,3.299,3.2969,3.2963,3.299,3.2994,3.2999,3.31,3.2999,3.3002,3.3005,3.3212,3.3216,3.322,0,0,0,0,0,0,3.294,3.2949,3.3015,3.298,3.2987,3.2973,3.2995,3.2991,3.3003,3.2993,3.299,3.2984,3.2988,3.2993,3.3052,3.31,3.3004,3.3008,3.3208,3.3213,3.3218,3.3303,0,0,0,0,0,0,3.2938,3.2949,3.298,3.2981,3.2989,3.3068,3.2998,3.2994,3.301,3.3002,3.3007,3.3005,3.2986,3.3047,3.3056,3.3103,3.301,3.3204,3.321,3.3216,3.3296,3.331,3.3323,0,0,0,0,0,3.2935,3.3002,3.2982,3.2991,3.3028,3.307,3.3075,3.3052,3.3014,3.3046,3.304,3.3005,3.3093,3.3053,3.3063,3.3112,3.32,3.3208,3.3216,3.329,3.3307,3.3322,0,0,0,0,0,0,3.3005,3.3001,3.2979,3.3049,3.3061,3.3059,3.3098,3.3071,3.3093,3.3085,3.3055,3.3057,3.3122,3.3123,3.3078,3.3196,3.314,3.315,3.3193,3.321,3.3223,3.3222,3.3014,0,0,0,0,0,3.303,3.3064,3.3059,3.3121,3.3128,3.3113,3.313,3.3111,3.3122,3.3127,3.3125,3.3137,3.3168,3.3189,3.3216,3.3296,3.3297,3.3335,3.3348,3.3359,3.3369,3.3414,3.3431,3.3245,3.3245,3.3245,0,0,3.3079,3.3081,3.3104,3.3135,3.3142,3.318,3.3117,3.3158,3.3186,3.3133,3.3189,3.3189,3.32,3.3271,3.3302,3.3273,3.3421,3.3369,3.3378,3.3381,3.3424,3.3441,3.3457,3.325,3.325,3.3249,0,0,3.3188,3.3193,3.3246,3.3256,3.3267,3.3257,3.3271,3.3274,3.3272,3.3328,3.329,3.3323,3.3376,3.3387,3.34,3.3518,3.3488,3.3528,3.3599,3.3643,3.3658,3.3671,3.3716,3.3732,3.3537,3.3537,3.3537,0,3.3248,3.3303,3.3277,3.3323,3.3339,3.3294,3.3349,3.3359,3.3379,3.3392,3.336,3.3428,3.3433,3.3507,3.3536,3.3547,3.3563,3.3527,3.3658,3.3671,3.3682,3.3725,3.3742,3.3542,3.3542,3.3541,3.3541,0,3.3377,3.3416,3.3458,3.3481,3.3502,3.3552,3.3535,3.3559,3.354,3.3534,3.3594,3.3598,3.3627,3.3643,3.3623,3.3716,3.3698,3.3663,3.3606,3.3706,3.3745,3.3761,3.3549,3.3548,3.3546,3.3545,0,0,3.353,3.3541,3.3557,3.3568,3.358,3.361,3.3659,3.3689,3.3712,3.3728,3.377,3.3818,3.3786,3.3801,3.3783,3.3822,3.3919,3.3782,3.3782,3.3809,3.4025,3.4053,3.4072,3.3899,3.3902,3.3904,3.4025,0,3.364,3.3725,3.3706,3.379,3.3827,3.3787,3.383,3.3843,3.3839,3.3871,3.3867,3.3902,3.3856,3.3866,3.3902,3.39,3.3962,3.389,3.3939,3.3942,3.3939,3.4092,3.4121,3.4234,3.404,3.4042,3.4044,0,3.3779,3.3803,3.3892,3.3901,3.3916,3.3955,3.3983,3.4013,3.4028,3.4023,3.4041,3.4017,3.4067,3.4011,3.4082,3.4033,3.4052,3.4054,3.4058,3.4063,3.4,3.4103,3.4269,3.4287,3.4068,3.4066,3.4064,0,3.3886,3.394,3.4001,3.4011,3.4022,3.4052,3.4058,3.4069,3.409,3.4114,3.4128,3.4157,3.4174,3.4199,3.4183,3.4143,3.4258,3.4199,3.4257,3.4258,3.4284,3.4283,3.4458,3.4294,3.4293,3.4293,3.4293,0,3.4011,3.4068,3.4049,3.4087,3.415,3.4127,3.4191,3.4192,3.4204,3.4242,3.4208,3.4245,3.4222,3.4257,3.4246,3.4309,3.4315,3.4314,3.4311,3.4318,3.4319,3.4331,3.4324,3.4297,3.4296,3.4296,3.4295,0,3.414,3.413,3.4194,3.4201,3.4204,3.4251,3.4257,3.4293,3.4287,3.4337,3.4347,3.4339,3.438,3.4367,3.441,3.4403,3.4483,3.4468,3.4479,3.4476,3.4536,3.4531,3.4726,3.4752,3.4569,3.4571,3.4572,0,3.4222,3.4265,3.4277,3.4301,3.431,3.4348,3.437,3.435,3.4374,3.4397,3.4431,3.4469,3.4498,3.4565,3.4564,3.4598,3.4585,3.4651,3.459,3.4597,3.4589,3.4588,3.4593,3.4664,3.4666,3.4667,3.4669,0,3.4369,3.4363,3.4395,3.4427,3.4454,3.4478,3.4498,3.452,3.4502,3.4531,3.4573,3.4596,3.4642,3.4681,3.4713,3.472,3.4693,3.4688,3.4704,3.4713,3.4718,3.4719,3.4514,3.4684,3.4682,3.4681,3.4681,3.468,3.4478,3.4516,3.4532,3.457,3.4584,3.4605,3.4641,3.4641,3.4676,3.4712,3.4699,3.4748,3.4765,3.4804,3.4816,3.4855,3.483,3.4852,3.4858,3.4864,3.4873,3.4711,3.486,3.486,3.486,3.4859,3.4859,0,3.4626,3.4635,3.467,3.4702,3.4733,3.4705,3.4727,3.4756,3.4799,3.4817,3.4848,3.4898,3.4937,3.494,3.4977,3.5008,3.4996,3.5018,3.5016,3.5019,3.4892,3.4876,3.5027,3.5027,3.5027,3.5027,3.5027,3.5027,3.4706,3.477,3.4766,3.4837,3.4846,3.4894,3.491,3.493,3.4945,3.5003,3.5035,3.5037,3.505,3.5089,3.5124,3.5124,3.514,3.5167,3.5163,3.5044,3.5028,3.5012,3.4997,3.517,3.5171,3.5287,3.5288,3.5289]},{"header":{"parameterUnit":"m.s-1","parameterCategory":1,"la1":30.2991,"la2":30.254,"lo1":-89.0895,"lo2":-89.0444,"dy":0.0017,"dx":0.0017,"nx":28,"ny":28,"refTime":"2023-10-14T03:00:00:Z","depth":0,"parameterNumber":3,"parameterNumberName":"V-component_of_WINDS"},"data":[0,0,0,0,0,0,0,0,0,0,0,0,0,0,0,0,0,0,0,0,0,0,0,0,0,0,0,0,0,0,0,0,0,0,0,0,0,0,0,0,0,0,0,0,0,0,0,0,0,0,0,0,0,0,0,0,0,0,-3.7706,-3.7707,0,-3.7823,-3.7824,-3.7826,-3.7845,-3.7844,-3.7843,-3.7842,-3.7958,-3.7961,-3.7965,0,0,0,0,0,0,0,0,0,0,0,0,0,-3.7494,-3.7498,-3.7705,-3.7707,-3.7708,-3.7823,-3.7825,-3.7826,-3.7845,-3.7844,-3.7842,-3.7841,-3.7956,-3.7961,-3.7966,0,0,0,0,0,0,0,0,0,0,0,0,0,-3.7596,-3.7499,-3.7705,-3.7732,-3.7735,-3.7823,-3.7825,-3.7827,-3.7845,-3.7844,-3.7842,-3.7841,-3.7955,-3.796,-3.7966,-3.8034,0,0,-3.7985,-3.7987,0,0,0,0,0,0,0,0,-3.759,-3.7604,-3.7726,-3.773,-3.7734,-3.7818,-3.7793,-3.7896,-3.7846,-3.7803,-3.7842,-3.784,-3.7912,-3.7921,-3.7947,-3.804,-3.8045,-3.7985,-3.7989,-3.7992,-3.7993,0,0,0,0,0,0,0,-3.7583,-3.7599,-3.7752,-3.7728,-3.7733,-3.7737,-3.775,-3.7812,-3.7864,-3.7807,-3.7809,-3.7822,-3.7914,-3.7941,-3.7949,-3.8046,-3.7985,-3.7991,-3.7994,-3.7997,-3.8202,-3.8203,0,0,0,0,0,0,-3.7572,-3.7593,-3.7748,-3.7755,-3.7657,-3.7742,-3.7756,-3.7792,-3.7864,-3.7874,-3.7824,-3.7823,-3.7931,-3.7942,-3.7954,-3.8038,-3.7992,-3.7997,-3.8001,-3.82,-3.8202,-3.8204,0,0,0,0,0,0,-3.7567,-3.7586,-3.7743,-3.7675,-3.7695,-3.7747,-3.7788,-3.7796,-3.7823,-3.7877,-3.7886,-3.7842,-3.793,-3.7945,-3.8015,-3.8042,-3.8,-3.8005,-3.8198,-3.8201,-3.8203,-3.8207,0,0,0,0,0,0,-3.7561,-3.7584,-3.7611,-3.7675,-3.7699,-3.7803,-3.7789,-3.7799,-3.7834,-3.7834,-3.7896,-3.7905,-3.793,-3.8006,-3.8021,-3.805,-3.801,-3.8195,-3.8199,-3.8202,-3.8205,-3.821,-3.8214,0,0,0,0,0,-3.7554,-3.7606,-3.7612,-3.763,-3.7734,-3.7805,-3.7818,-3.7848,-3.7836,-3.7863,-3.7898,-3.7903,-3.8037,-3.8012,-3.803,-3.8061,-3.8194,-3.8198,-3.8202,-3.8203,-3.8209,-3.8214,0,0,0,0,0,0,-3.7541,-3.7615,-3.7622,-3.7697,-3.7745,-3.7808,-3.7843,-3.7853,-3.7904,-3.7901,-3.7935,-3.7949,-3.8016,-3.8046,-3.8017,-3.8131,-3.8114,-3.8122,-3.8109,-3.8116,-3.812,-3.8111,-3.8015,0,0,0,0,0,-3.7547,-3.76,-3.7661,-3.7721,-3.7745,-3.779,-3.7822,-3.7841,-3.7891,-3.7911,-3.7951,-3.7998,-3.8051,-3.8085,-3.8137,-3.821,-3.8224,-3.824,-3.8245,-3.8248,-3.8254,-3.8296,-3.8304,-3.8218,-3.8218,-3.8218,0,0,-3.756,-3.7607,-3.7638,-3.772,-3.7759,-3.7813,-3.7807,-3.7863,-3.7902,-3.7919,-3.7987,-3.8019,-3.8074,-3.8146,-3.8179,-3.8172,-3.8281,-3.8254,-3.8256,-3.826,-3.8301,-3.8309,-3.8316,-3.822,-3.822,-3.8219,0,0,-3.761,-3.7651,-3.7706,-3.7747,-3.7807,-3.7837,-3.785,-3.7913,-3.7934,-3.8004,-3.8018,-3.8065,-3.8156,-3.8195,-3.8226,-3.8294,-3.8301,-3.831,-3.8333,-3.8374,-3.838,-3.8386,-3.8411,-3.8419,-3.8316,-3.8316,-3.8316,0,-3.7618,-3.77,-3.7733,-3.779,-3.7825,-3.7845,-3.7901,-3.7938,-3.8011,-3.8035,-3.8027,-3.8142,-3.818,-3.8262,-3.8279,-3.8304,-3.832,-3.8302,-3.8377,-3.8384,-3.839,-3.8413,-3.8422,-3.8317,-3.8317,-3.8317,-3.8316,0,-3.7707,-3.7763,-3.78,-3.7873,-3.7913,-3.7969,-3.801,-3.8047,-3.8063,-3.8093,-3.8164,-3.8212,-3.8274,-3.8295,-3.831,-3.8379,-3.8373,-3.8371,-3.8354,-3.8398,-3.842,-3.843,-3.8318,-3.8317,-3.8317,-3.8317,0,0,-3.775,-3.7842,-3.7855,-3.7889,-3.7958,-3.8002,-3.8059,-3.8122,-3.8153,-3.8203,-3.8251,-3.8329,-3.8328,-3.8364,-3.8384,-3.8419,-3.847,-3.8413,-3.8414,-3.8421,-3.8549,-3.855,-3.856,-3.8476,-3.8478,-3.8479,-3.8544,0,-3.7808,-3.7912,-3.7944,-3.803,-3.8083,-3.8104,-3.8154,-3.8201,-3.8232,-3.828,-3.8314,-3.8368,-3.8363,-3.8385,-3.8421,-3.8456,-3.8496,-3.8452,-3.852,-3.8522,-3.8504,-3.8571,-3.8572,-3.8631,-3.8553,-3.8555,-3.8556,0,-3.7889,-3.7944,-3.8035,-3.81,-3.8123,-3.8167,-3.8228,-3.8275,-3.8329,-3.8349,-3.839,-3.8408,-3.8468,-3.845,-3.8532,-3.8501,-3.8531,-3.8553,-3.8556,-3.8562,-3.854,-3.8579,-3.8651,-3.8659,-3.857,-3.8569,-3.8568,0,-3.7911,-3.8007,-3.8075,-3.8104,-3.818,-3.8211,-3.8244,-3.8297,-3.8333,-3.8386,-3.841,-3.8468,-3.85,-3.8544,-3.8577,-3.8561,-3.8657,-3.8641,-3.8674,-3.8673,-3.8692,-3.869,-3.8769,-3.8713,-3.8712,-3.8712,-3.8712,0,-3.7972,-3.8028,-3.8086,-3.8128,-3.8191,-3.8228,-3.8288,-3.8322,-3.837,-3.8418,-3.8439,-3.8483,-3.8525,-3.8575,-3.8601,-3.8665,-3.8679,-3.8696,-3.8702,-3.8694,-3.8691,-3.8713,-3.8709,-3.8715,-3.8714,-3.8714,-3.8713,0,-3.8007,-3.8049,-3.8124,-3.8191,-3.8209,-3.8253,-3.831,-3.8351,-3.8383,-3.8444,-3.846,-3.851,-3.857,-3.8608,-3.8683,-3.8701,-3.8771,-3.8776,-3.8753,-3.8756,-3.8787,-3.8783,-3.8881,-3.8896,-3.883,-3.8831,-3.8831,0,-3.8042,-3.8086,-3.8159,-3.8193,-3.8227,-3.8282,-3.832,-3.8359,-3.8397,-3.8464,-3.8496,-3.8558,-3.8609,-3.8704,-3.8746,-3.8804,-3.881,-3.8841,-3.8819,-3.8809,-3.881,-3.8807,-3.8811,-3.8844,-3.8844,-3.8845,-3.8845,0,-3.8101,-3.812,-3.8175,-3.8237,-3.8282,-3.8333,-3.8383,-3.841,-3.8457,-3.8499,-3.8561,-3.8601,-3.868,-3.8741,-3.8803,-3.8836,-3.8848,-3.8852,-3.8863,-3.8854,-3.8839,-3.8847,-3.8762,-3.8849,-3.8849,-3.8848,-3.8848,-3.8848,-3.8137,-3.8177,-3.8235,-3.8295,-3.8338,-3.8385,-3.8427,-3.8466,-3.852,-3.8588,-3.8607,-3.8672,-3.8727,-3.8812,-3.8847,-3.8898,-3.8893,-3.8909,-3.8912,-3.8915,-3.8916,-3.8832,-3.8909,-3.8909,-3.8909,-3.8909,-3.8909,0,-3.8196,-3.8236,-3.8291,-3.8362,-3.8409,-3.842,-3.8477,-3.8515,-3.8573,-3.8624,-3.8675,-3.8747,-3.8806,-3.8855,-3.8916,-3.8947,-3.8955,-3.8962,-3.8959,-3.8967,-3.8916,-3.8901,-3.8955,-3.8955,-3.8955,-3.8955,-3.8955,-3.8955,-3.8233,-3.8301,-3.8328,-3.8418,-3.8456,-3.8522,-3.8553,-3.8597,-3.8638,-3.8718,-3.8769,-3.8801,-3.885,-3.8916,-3.8971,-3.8984,-3.9005,-3.9011,-3.9024,-3.8975,-3.897,-3.8965,-3.8951,-3.9015,-3.9015,-3.9071,-3.9071,-3.9072]}]]